Date String (YYYY-MM-DD hh:mm:ss) UTC,Instrument flags,absolute air pressure of the measurement (hPa),sample flow rate (lpm),inlet stack bypass flow (lpm),air temperature of the measurement (°C),ambient temperature measured by the external sensor (°C),aerosol sample conditioner tube jacket temperature (°C),OPC LED temperature (°C),internal box temperature (°C),relative humidity of the measurement (%),span deviation,mass concentration of particles derived from Lorenz-Mie calculation of OPC scattering (μg/m³),mass concentration of particles derived from Lorenz-Mie calculation of OPC scattering (μg/m³),mass concentration of particles derived from Lorenz-Mie calculation of OPC scattering (μg/m³)
DateTimeUTC,F1_M11,P_M11,Q1_M11,Q2_M11,T1_M11,T2_M11,T3_M11,T4_M11,T5_M11,U1_M11,ZSPAN_M11,X0_M11,X2_M11,X1_M11
2023-10-25 12:00:00,SystemResetWarning,0827.1,5.01,000.00,028.5,027.0,000.0,037.0,030.2,18.6,0000.0,0028.48,0008.94,0006.13
2023-10-25 12:01:00,SystemResetWarning,0827.0,5.00,000.00,028.5,027.0,000.0,037.0,030.2,18.7,0000.0,0027.79,0008.92,0006.13
2023-10-25 12:02:00,SystemResetWarning,0827.1,4.99,000.00,028.5,027.0,000.0,037.0,030.2,18.7,0000.0,0027.22,0008.96,0006.16
2023-10-25 12:03:00,SystemResetWarning,0827.1,5.00,000.00,028.5,027.0,000.0,037.0,030.2,18.7,0000.9,0027.90,0008.98,0006.19
2023-10-25 12:04:00,SystemResetWarning,0827.2,4.99,000.00,028.5,027.0,000.0,037.0,030.2,18.7,0000.1,0029.11,0009.08,0006.21
2023-10-25 12:05:00,SystemResetWarning,0827.1,4.99,000.00,028.5,027.0,000.0,037.0,030.2,18.7,0000.0,0029.22,0009.13,0006.24
2023-10-25 12:06:00,SystemResetWarning,0827.1,5.00,000.00,028.5,027.0,000.0,036.9,030.2,18.7,0000.3,0028.52,0009.17,0006.27
2023-10-25 12:07:00,SystemResetWarning,0827.1,5.00,000.00,028.5,027.0,000.0,036.9,030.2,18.7,0000.0,0028.91,0009.20,0006.31
2023-10-25 12:08:00,SystemResetWarning,0827.1,5.00,000.00,028.5,027.0,000.0,037.0,030.2,18.7,0000.0,0028.37,0009.19,0006.33
2023-10-25 12:09:00,SystemResetWarning,0827.1,5.00,000.00,028.5,027.0,000.0,037.0,030.2,18.7,0000.0,0026.88,0009.07,0006.30
2023-10-25 12:10:00,SystemResetWarning,0827.1,5.00,000.00,028.5,027.0,000.0,037.0,030.2,18.7,0000.0,0026.35,0009.07,0006.29
2023-10-25 12:11:00,SystemResetWarning,0827.1,4.99,000.00,028.5,027.0,000.0,036.9,030.2,18.7,0001.2,0025.02,0008.95,0006.25
2023-10-25 12:12:00,SystemResetWarning,0827.1,5.00,000.00,028.5,027.0,000.0,036.9,030.2,18.7,0001.6,0026.03,0008.84,0006.23
2023-10-25 12:13:00,SystemResetWarning,0827.1,4.99,000.00,028.5,027.0,000.0,036.9,030.2,18.8,0002.2,0025.89,0008.74,0006.19
2023-10-25 12:14:00,SystemResetWarning,0827.1,5.00,000.00,028.5,027.0,000.0,036.9,030.2,18.9,0002.4,0025.47,0008.69,0006.13
2023-10-25 12:15:00,SystemResetWarning,0827.1,5.01,000.00,028.5,027.0,000.0,036.9,030.2,19.0,0002.4,0024.49,0008.64,0006.10
2023-10-25 12:16:00,SystemResetWarning,0827.1,5.00,000.00,028.5,027.0,000.0,036.9,030.2,19.0,0002.4,0025.30,0008.62,0006.12
2023-10-25 12:17:00,SystemResetWarning,0827.1,5.01,000.00,028.5,027.0,000.0,036.9,030.2,18.9,0003.0,0026.20,0008.62,0006.10
2023-10-25 12:18:00,SystemResetWarning,0827.0,4.99,000.00,028.5,027.0,000.0,036.9,030.2,18.9,0003.0,0025.97,0008.46,0006.04
2023-10-25 12:19:00,SystemResetWarning,0827.0,4.99,000.00,028.5,027.0,000.0,036.9,030.2,18.8,0002.9,0026.24,0008.40,0005.98
2023-10-25 12:20:00,SystemResetWarning,0827.0,4.99,000.00,028.5,027.0,000.0,036.9,030.2,18.7,0002.5,0027.02,0008.35,0005.94
2023-10-25 12:21:00,SystemResetWarning,0827.0,5.00,000.00,028.5,027.0,000.0,036.9,030.2,18.7,0001.3,0028.26,0008.34,0005.92
2023-10-25 12:22:00,SystemResetWarning,0827.0,5.00,000.00,028.5,027.0,000.0,036.9,030.2,18.7,0001.3,0029.03,0008.40,0005.90
2023-10-25 12:23:00,SystemResetWarning,0827.0,5.01,000.00,028.5,027.0,000.0,037.0,030.2,18.7,0001.0,0027.92,0008.40,0005.86
2023-10-25 12:24:00,SystemResetWarning,0826.9,5.01,000.00,028.5,027.0,000.0,036.9,030.2,18.7,0000.9,0027.42,0008.46,0005.83
2023-10-25 12:25:00,SystemResetWarning,0827.0,5.01,000.00,028.5,027.0,000.0,037.0,030.2,18.7,0000.8,0027.35,0008.40,0005.79
2023-10-25 12:26:00,SystemResetWarning,0827.0,4.99,000.00,028.5,026.9,000.0,036.9,030.2,18.7,0001.6,0026.52,0008.28,0005.74
2023-10-25 12:27:00,SystemResetWarning,0827.0,4.99,000.00,028.5,026.9,000.0,036.9,030.2,18.7,0000.8,0025.36,0008.16,0005.65
2023-10-25 12:28:00,SystemResetWarning,0826.9,5.01,000.00,028.5,026.9,000.0,037.0,030.1,18.6,0000.1,0024.23,0008.04,0005.59
2023-10-25 12:29:00,SystemResetWarning,0826.9,5.02,000.00,028.5,026.9,000.0,036.9,030.1,18.5,0001.3,0023.76,0008.01,0005.55
2023-10-25 12:30:00,SystemResetWarning,0826.9,5.00,000.00,028.5,026.9,000.0,036.9,030.1,18.6,0001.5,0024.05,0008.05,0005.52
2023-10-25 12:31:00,SystemResetWarning,0826.9,5.00,000.00,028.5,026.9,000.0,036.9,030.1,18.6,0001.6,0024.99,0008.00,0005.48
2023-10-25 12:32:00,SystemResetWarning,0826.9,5.00,000.00,028.5,026.8,000.0,037.0,030.1,18.6,0002.4,0023.95,0007.93,0005.40
2023-10-25 12:33:00,SystemResetWarning,0826.9,5.00,000.00,028.5,026.8,000.0,036.9,030.1,18.6,0000.6,0022.79,0007.85,0005.35
2023-10-25 12:34:00,SystemResetWarning,0826.8,5.00,000.00,028.5,026.8,000.0,036.9,030.1,18.6,0000.0,0023.56,0007.85,0005.32
2023-10-25 12:35:00,SystemResetWarning,0826.8,5.00,000.00,028.4,026.7,000.0,036.9,030.1,18.6,0000.0,0022.89,0007.76,0005.31
2023-10-25 12:36:00,SystemResetWarning,0826.8,5.00,000.00,028.4,026.8,000.0,036.9,030.0,18.6,0000.0,0022.67,0007.78,0005.36
2023-10-25 12:37:00,SystemResetWarning,0826.8,4.99,000.00,028.4,026.8,000.0,036.9,030.0,18.6,0000.0,0023.63,0007.84,0005.40
2023-10-25 12:38:00,SystemResetWarning,0826.8,4.99,000.00,028.4,026.7,000.0,036.9,030.0,18.7,0000.0,0024.02,0007.95,0005.46
2023-10-25 12:39:00,SystemResetWarning,0826.8,4.99,000.00,028.4,026.7,000.0,036.9,030.0,18.7,0000.0,0024.70,0008.10,0005.49
2023-10-25 12:40:00,SystemResetWarning,0826.8,5.00,000.00,028.4,026.7,000.0,036.9,030.0,18.7,0000.0,0025.48,0008.14,0005.53
2023-10-25 12:41:00,SystemResetWarning,0826.8,5.00,000.00,028.4,026.7,000.0,036.9,030.0,18.8,0000.0,0025.26,0008.14,0005.60
2023-10-25 12:42:00,SystemResetWarning,0826.8,5.00,000.00,028.4,026.7,000.0,036.9,030.0,18.8,0000.0,0023.76,0008.30,0005.69
2023-10-25 12:43:00,SystemResetWarning,0826.8,5.00,000.00,028.4,026.7,000.0,036.9,029.9,18.9,0000.3,0023.73,0008.38,0005.77
2023-10-25 12:44:00,SystemResetWarning,0826.7,5.01,000.00,028.4,026.7,000.0,036.9,029.9,18.9,0000.2,0023.71,0008.46,0005.86
2023-10-25 12:45:00,SystemResetWarning,0826.6,5.00,000.00,028.3,026.6,000.0,036.9,029.9,19.0,0000.0,0022.72,0008.55,0005.95
2023-10-25 12:46:00,SystemResetWarning,0826.6,5.00,000.00,028.3,026.6,000.0,036.9,029.9,19.0,0000.0,0023.96,0008.77,0006.05
2023-10-25 12:47:00,SystemResetWarning,0826.6,5.00,000.00,028.3,026.6,000.0,036.9,029.9,19.0,0000.0,0024.34,0008.87,0006.11
2023-10-25 12:48:00,SystemResetWarning,0826.6,5.00,000.00,028.3,026.6,000.0,036.9,029.9,19.0,0000.0,0024.30,0008.92,0006.17
2023-10-25 12:49:00,SystemResetWarning,0826.6,5.00,000.00,028.3,026.6,000.0,036.8,029.9,19.0,0000.0,0024.52,0009.07,0006.26
2023-10-25 12:50:00,SystemResetWarning,0826.6,4.99,000.00,028.3,026.6,000.0,036.8,029.9,19.0,0000.0,0024.44,0009.14,0006.38
2023-10-25 12:51:00,SystemResetWarning,0826.6,4.99,000.00,028.3,026.6,000.0,036.8,029.9,18.9,0000.0,0025.72,0009.27,0006.49
2023-10-25 12:52:00,SystemResetWarning,0826.6,5.01,000.00,028.3,026.6,000.0,036.8,029.9,18.8,0000.0,0025.62,0009.43,0006.60
2023-10-25 12:53:00,SystemResetWarning,0826.6,5.01,000.00,028.3,026.6,000.0,036.8,029.9,18.6,-000.8,0025.98,0009.49,0006.67
2023-10-25 12:54:00,SystemResetWarning,0826.6,5.01,000.00,028.3,026.5,000.0,036.8,029.9,18.6,-000.7,0025.82,0009.55,0006.74
2023-10-25 12:55:00,SystemResetWarning,0826.6,5.01,000.00,028.2,026.5,000.0,036.8,029.9,18.5,-000.2,0026.25,0009.61,0006.80
2023-10-25 12:56:00,SystemResetWarning,0826.6,5.00,000.00,028.2,026.5,000.0,036.8,029.9,18.5,0000.0,0026.98,0009.69,0006.82
2023-10-25 12:57:00,SystemResetWarning,0826.6,5.01,000.00,028.2,026.5,000.0,036.8,029.9,18.3,-000.6,0026.52,0009.64,0006.81
2023-10-25 12:58:00,SystemResetWarning,0826.6,5.00,000.00,028.2,026.5,000.0,036.8,029.9,18.2,-000.0,0025.89,0009.60,0006.78
2023-10-25 12:59:00,SystemResetWarning,0826.6,5.00,000.00,028.2,026.6,000.0,036.7,029.9,18.2,0000.7,0026.19,0009.59,0006.74
